STARLINK-1921 (46752 NORAD) Tracking and Keplerian Element Data

This shows tracking and keplerian element data for the satellite.

Feedback or suggestion? Click here.




ElementValue
Catalog46752
NameSTARLINK-1921
Epoch Orbit584
Epoch Day332.58334491
Epoch Year2020
RAAN353.8328
Inclination53.0539
Eccentricity0.0002478
Argument of Perigee66.131
Mean Anonmoly207.5018
Mean Motion15.62267912
Decay Rate0.0120195
L11 46752U 20074P 20332.58334491 .01201950 00000-0 12011-1 0 9998
L22 46752 53.0539 353.8328 0002478 66.1310 207.5018 15.62267912 5842

Live tracking and technical data element details for STARLINK-1921 (NORAD 46752). STARLINK-1921 can be tracked NOW for your location showing map with azimuth and elevation plus other details from your city location.

Track the satellite on the map from your city or location and see movement details for azimuth, elevation, latitude, longitude, range, height, and movement on the map or in text.







IsCatalogInMostPopularTable: catalog: 46752, numindb: 5
Update: records affected: 1



GetName: 46752 STARLINK-1921

Hit Count: updated at: Sun, 29 Nov 2020 07:55:18 GMT